This is the latest recevied weather packets stored in our database for station/object W4KAB. If no packets are shown the sender has not sent any weather packets the latest 10 day(s).
| Time | Temp. | Humidity | Pressure | Rain* | Wind** | Luminosity | Snow |
|---|---|---|---|---|---|---|---|
| 1777765543 | 13.89° C | 46% | 1014.8 hPa | 0 mm | - | 6 W/m² | - |
| 1777765241 | 13.89° C | 44% | 1014.7 hPa | 0 mm | - | 7 W/m² | - |
| 1777764940 | 14.44° C | 43% | 1014.7 hPa | 0 mm | - | 10 W/m² | - |
| 1777764638 | 15° C | 44% | 1014.5 hPa | 0 mm | - | 12 W/m² | - |
| 1777764337 | 15° C | 42% | 1014.5 hPa | 0 mm | - | 19 W/m² | - |
| 1777761911 | 15.56° C | 40% | 1014.1 hPa | 0 mm | - | 26 W/m² | - |
| 1777761306 | 15.56° C | 39% | 1014.1 hPa | 0 mm | - | 51 W/m² | - |
| 1777761004 | 15.56° C | 40% | 1014.2 hPa | 0 mm | - | 45 W/m² | - |
| 1777760703 | 16.11° C | 40% | 1013.9 hPa | 0 mm | - | 42 W/m² | - |
| 1777760396 | 16.67° C | 39% | 1013.9 hPa | 0 mm | - | 53 W/m² | - |
| 1777760093 | 16.67° C | 38% | 1013.5 hPa | 0 mm | - | 56 W/m² | - |
| 1777759790 | 16.67° C | 38% | 1013.3 hPa | 0 mm | - | 82 W/m² | - |
| 1777759183 | 16.11° C | 38% | 1013.3 hPa | 0 mm | - | 52 W/m² | - |
| 1777758880 | 16.11° C | 39% | 1012.9 hPa | 0 mm | - | 59 W/m² | - |
| 1777758577 | 16.11° C | 40% | 1013 hPa | 0 mm | - | 45 W/m² | - |
| 1777757667 | 16.67° C | 39% | 1012.7 hPa | 0 mm | - | 71 W/m² | - |
| 1777757065 | 16.67° C | 37% | 1012.7 hPa | 0 mm | - | 46 W/m² | - |
| 1777756761 | 16.67° C | 39% | 1012.7 hPa | 0 mm | - | 54 W/m² | - |
| 1777756457 | 17.22° C | 39% | 1012.4 hPa | 0 mm | - | 71 W/m² | - |
| 1777756155 | 17.22° C | 38% | 1012.5 hPa | 0 mm | - | 64 W/m² | - |
| 1777755852 | 17.22° C | 37% | 1012.4 hPa | 0 mm | - | 55 W/m² | - |
| 1777754336 | 19.44° C | 39% | 1012.2 hPa | 0 mm | - | 98 W/m² | - |
| 1777753729 | 19.44° C | 36% | 1012.1 hPa | 0 mm | - | 493 W/m² | - |
| 1777753427 | 18.89° C | 36% | 1012.2 hPa | 0 mm | - | 425 W/m² | - |
| 1777753125 | 19.44° C | 36% | 1012.6 hPa | 0 mm | - | 159 W/m² | - |
* Rain latest hour (hover to see other rain measurements)
** Current wind speed in m/s (hover to see current wind gust speed)